DECAYED

STARLINK-33667, 63482 (Decayed)

Orbit data source: Space-Track

STARLINK-33667, 63482 was a payload satellite owned by SpaceX/Seattle (US) in LEO that was launched on Sun, 06 Apr 2025 UTC via an FALCON 9 launch vehicle from the Air Force Eastern Test Range (AFETR). Payload-class satellites include a variety of spacecraft equipped with specific instruments for various scientific and technological missions. These include communications satellites like Starlink; space stations such as the ISS; scientific satellites like the Hubble; Earth observation satellites from companies like Planet Labs, Umbra, and HawkEye 360; GPS; miniature CubeSats for education and research; and military/defense satellites.

Not visible in the next 10 days
Identifier
63482, 2025-070Y
Orbit
Decayed
Country
Flag of USUS
Related business
Manufacturer
SpaceX/Seattle
Mission
Decayed Commercial Communications
Bus & Motor
STARLINK V2MO, Unknown motor
Mass
575 kg wet, ~530 kg dry
Launch date (UTC)
2025-04-06 (1 year ago)
Launch vehicle
FALCON 9
Launch site
Air Force Eastern Test Range (AFETR)
Object type
Payload
Rocket body
Debris
Shape & HBR
Box + 2 Pan, 17.7 m
Radar Cross Section
36.964 m², Large (>1 m²)

Expand to show TLE details & history
Last TLE update: 7 months ago

TLE from 7 months ago
0 STARLINK-33667
1 63482U 25070Y   25315.89000008  .01627177  20633-2  13560-2 0  9992
2 63482  42.9769 141.5222 0018138 292.4333  67.4629 16.13008040 35685
Epoch: 2025-11-11T21:21Z
TLE epoch observation values (Epoch: 2025-11-11T21:21:36.006Z)
Latitude
-0°
Longitude
129.8521°
Altitude
233.788 km
Speed
7.771 km/s
True Right ascension
09h 26m 05s
True Declination
0° 00' 00"
Sunlit
Object was in daylight at epoch
Visualization orbit readout
Latitude
Unknown
Longitude
Unknown
Altitude
Unknown
Speed
Unknown
Apparent Right ascension
Unknown
Apparent Declination
Unknown
Sunlit
N/A
Visualization observer readout
Local Sidereal Time
14:04:49
Azimuth
Unknown
Elevation
Unknown
Doppler factor
Unknown
Orbital elements
Apogee altitude
252.63 km
Perigee altitude
228.62 km
Semi-major axis
6,618.762 km
Eccentricity
0.00181
Inclination
42.9769°
RAAN
141.5222°
Arg. of periapsis
292.4333°
True anomaly
67.65504°
Mean anomaly
67.4629°
Eccentric anomaly
67.55895°
Mean motion
4.03068 °/min
Orbital period
89.32 mins
BSTAR
0.001356
Loading maneuver chart data...
Computing Atmospheric mass density...
Loading historical data...
Loading historical data...
Loading historical data...
Loading historical data...
Loading historical data...
Loading historical data...
Loading historical data...

Documentation

Showing up to 5 results
|